Location: Nag� el Ma?a??a
(24.0667°N, 32.8833°E)
Time: 15:06:32
(UTC+00:00)

H-2A ROCKET BODY - Pass Details

Date: 25 September 2021
Orbit: 236 x 14723 km, 28.6° (Epoch: 15 October)

Event Time Altitude Azimuth Distance (km) Brightness Sun altitude
Exits shadow 02:28:07 21° 266° (W) 3,699 4.8 -16.8°
Maximum altitude 02:35:12 67° 344° (NNW) 983 2.5 -15.2°
Drops below altitude 10° 02:38:39 10° 68° (ENE) 1,727 5.1 -14.4°
Sets 02:39:57 0° 72° (ENE) 2,312 6.2 -14.1°
